Regional Weather Roundup
Issued by NWS

Home | Current Version | Previous Version | Text Only | Print | Product List | Glossary On
Versions: 1 2 3 4 5 6 7 8 9 10 11 12 13 14 15 16 17 18 19 20 21 22 23 24 25 26 27 28 29 30 31 32 33 34 35 36 37 38 39 40 41 42 43 44 45 46 47 48 49 50
000
ASUS45 KTFX 300810
RWRMT
MONTANA REGIONAL WEATHER ROUNDUP
NATIONAL WEATHER SERVICE GREAT FALLS MT
200 AM MDT THU JUL 30 2015

NOTE: "FAIR" INDICATES FEW OR NO CLOUDS BELOW 12000 FEET WITH NO
SIGNIFICANT WEATHER AND/OR OBSTRUCTIONS TO VISIBILITY.

MTZ001>007-043-300900-
WEST OF THE DIVIDE

CITY           SKY/WX    TMP DP  RH WIND       PRES   REMARKS
KALISPELL      SUNNY     49  38  65 CALM      30.20R
MISSOULA       CLEAR     58  44  60 SE5       30.25R
BUTTE          CLEAR     48  40  73 SE6       30.36S
MULLAN PASS    CLEAR     60  28  29 CALM      30.36S
DEER LODGE       N/A     52  39  62 CALM      30.35S
EUREKA           N/A     55  37  50 CALM      30.20R
HAMILTON         N/A     55  43  62 S5        30.26S
LIBBY            N/A     52  37  58 CALM      30.20R
PLAINS           N/A     54  39  56 CALM      30.20R
RONAN            N/A     53  43  69 CALM      30.24S
$$

MTZ008-052>055-300900-
SOUTHWEST MONTANA

CITY           SKY/WX    TMP DP  RH WIND       PRES   REMARKS
BOZEMAN        CLEAR     51  44  77 SE6       30.30R
DILLON         CLEAR     55  42  61 S7        30.33R
W YELLOWSTONE  CLEAR     39  37  93 SW3       30.45R
THREE FORKS      N/A     50  22  33 CALM      30.26R
TWIN BRIDGES     N/A     53  42  66 E3        30.28R
$$

MTZ009-010-012-014-046-048-049-054-300900-
EAST SLOPES AND CENTRAL MONTANA

CITY           SKY/WX    TMP DP  RH WIND       PRES   REMARKS
CUT BANK       CLEAR     50  40  68 NW8       30.24R
GREAT FALLS    CLEAR     58  41  53 SW7       30.21S
MALMSTROM AFB  CLEAR     62  43  50 SW7       30.21S
HELENA         CLEAR     58  42  55 CALM      30.26R
CONRAD           N/A     53  46  77 W3        30.22R
$$

MTZ011-013-016-021-045-047-050-051-300900-
NORTH CENTRAL MONTANA

CITY           SKY/WX    TMP DP  RH WIND       PRES   REMARKS
HAVRE          PTCLDY    56  50  80 NW7       30.17R
LEWISTOWN      CLEAR     53  43  68 S5        30.26R
CHINOOK          N/A     55  52  88 CALM      30.16R
FORT BENTON      N/A     61  45  55 SW5       30.19S
$$

MTZ017>020-022>027-061-062-300900-
NORTHEAST MONTANA

CITY           SKY/WX    TMP DP  RH WIND       PRES   REMARKS
GLASGOW        MOCLDY    63  53  70 S6        30.11S
JORDAN           N/A     54  48  80 CALM      30.14R
SIDNEY         MOCLDY    55  50  82 S3        30.11R
WOLF POINT     MOCLDY    62  53  72 CALM      30.13F
MALTA            N/A     58  49  72 MISG      30.10R
PLENTYWOOD       N/A     57  52  82 W3        30.13R
POPLAR           N/A     61  54  77 N6        30.13F
SCOBEY           N/A     54  47  77 NW1       30.12S
$$

MTZ028>42-056>058-300900-
SOUTHCENTRAL AND SOUTHEAST MONTANA

CITY           SKY/WX    TMP DP  RH WIND       PRES   REMARKS
BAKER          CLEAR     55  43  63 S9        30.19F
BILLINGS       CLEAR     64  40  41 S10       30.25S
LIVINGSTON     CLEAR     49  41  74 CALM      30.31R
MILES CITY     CLEAR     56  47  71 S8        30.16S
EKALAKA          N/A     55  37  50 SE5       30.19R
FORSYTH          N/A     64  43  45 CALM      30.17S
LAUREL           N/A     59  36  42 W3        30.21S
ROUNDUP          N/A     57  41  55 S6        30.12S
$$

REGIONAL REPORTS...DAKOTAS

CITY           SKY/WX    TMP DP  RH WIND       PRES   REMARKS
WILLISTON      CLEAR     60  52  74 N5        30.13R
MINOT          PTCLDY    61  51  70 SW8       30.05R
DICKINSON      CLEAR     52  45  77 S3        30.13S
BEACH          FAIR      54  46  76 SW3       30.16S
CROSBY         PTSUNNY   57  57 100 N8        30.09F
BISMARCK       CLEAR     56  50  80 W3        30.10S
GRAND FORKS    CLEAR     64  57  78 W9        29.93S
FARGO          CLEAR     62  55  77 W10       29.97S
BUFFALO SD       N/A     61  39  44 W5        30.14S
RAPID CITY     CLEAR     55  48  77 NW8       30.22R
$$

REGIONAL REPORTS...WYOMING/IDAHO/WASHINGTON

CITY           SKY/WX    TMP DP  RH WIND       PRES   REMARKS
GILLETTE       CLEAR     49  39  68 S7        30.29R
SHERIDAN       CLEAR     53  42  66 CALM      30.27S
BUFFALO WY     CLEAR     60  36  40 W9        30.34R
CODY           CLEAR     61  34  36 SW5       30.34S
YELLOWSTONE LA   N/A     39  33  79 NW3       30.53S
IDAHO FALLS    CLEAR     46  41  82 N5        30.31R
SALMON         CLEAR     54  45  71 CALM      30.28R
BOISE          CLEAR     67  38  34 SE8       30.16S
SPOKANE        CLEAR     70  32  24 S8        30.14S
$$

REGIONAL REPORTS...ALBERTA

CITY           SKY/WX    TMP DP  RH WIND       PRES   REMARKS
EDMONTON       MOCLDY    55  48  76 SW7       30.12S
CALGARY        PTCLDY    52  45  76 CALM      30.22S
LETHBRIDGE     MOCLDY    50  46  87 W6        30.20R
MEDICINE HAT   CLEAR     52  46  82 SW7       30.16R
WATERTON GATE    N/A     43  39  87 CALM        N/A
CARDSTON         N/A     50  39  66 S6          N/A
MILK RIVER       N/A     48  45  87 NW9         N/A
$$

REGIONAL REPORTS...SASKATCHEWAN

CITY           SKY/WX    TMP DP  RH WIND       PRES   REMARKS
SWIFT CURRENT  MOCLDY    54  50  87 SW9       30.14R
REGINA         PTCLDY    55  54  94 W7        30.08R
SASKATOON      PTCLDY    54  50  87 W7        30.06R
VAL MARIE        N/A     52  50  93 S2          N/A
ROCKGLEN         N/A     50  48  93 S5          N/A
$$


USA.gov is the U.S. government's official web portal to all federal, state and local government web resources and services.